Probability
6 2 0 0 0 0 0 0 0 0 0 0 0 0 0 0 0 0 0 0 0 0 0 0 0 0 0 0 0 0 0 0 0 0 0 0 0 0 0 0 0 0 0 0 0 0 0 0 0
4 1 0 0 0 0 0 0 0 0 0 0 0 0 0 0 0 0 0 0 0 0 0 0 0 0 0 0 0 0 0 0 0 0 0 0 0 0 0 0 0 0 0 0 0 0 0 0 0
1 0 0 0 0 0 0 0 0 0 0 0 0 0 0 0 0 0 0 0 0 0 0 0 0 0 0 0 0 0 0 0 0 0 0 0 0 0 0 0 0 0 0 0 0 0 0 0 0
0 0 0 0 0 0 0 0 0 0 0 0 0 0 0 0 0 1 1 0 0 0 0 0 0 0 0 0 0 0 0 0 0 0 0 0 0 0 0 0 0 0 0 0 0 0 0 0 0
0 0 0 0 0 0 0 0 0 0 0 0 0 0 0 0 0 1 2 1 0 0 0 1 2 1 0 0 0 0 0 0 0 0 0 0 0 0 0 0 0 0 0 0 0 0 0 0 0
0 0 0 0 0 0 0 0 0 0 0 0 0 0 0 0 0 1 2 2 1 0 0 1 2 2 0 0 0 0 0 0 0 0 0 0 0 0 0 0 0 0 0 0 0 0 0 0 0
0 0 0 0 0 0 0 0 0 0 0 0 0 0 0 0 0 1 3 2 1 0 0 0 1 1 0 0 0 0 0 0 0 0 0 0 0 0 0 0 0 0 0 0 0 0 0 0 0
0 0 0 0 0 0 0 0 0 0 0 0 0 0 0 0 1 2 3 3 1 0 0 0 0 0 0 0 0 0 0 1 1 0 0 0 0 0 0 0 0 0 0 0 0 0 0 0 0
0 0 0 0 0 0 0 0 0 1 0 0 0 0 0 1 2 3 3 3 2 1 0 0 0 0 0 0 0 0 0 1 1 0 0 0 0 0 0 0 0 0 0 0 0 0 0 0 0
0 0 0 0 0 0 0 0 0 0 0 0 0 0 1 2 3 3 3 3 2 1 0 0 0 0 0 0 0 0 0 1 1 0 0 0 0 0 0 0 0 0 0 0 0 0 0 0 0
0 0 0 0 0 0 0 0 0 0 0 0 0 0 1 2 3 3 3 3 3 1 0 0 0 0 0 0 0 0 0 0 0 0 0 0 0 0 0 0 0 0 0 0 0 0 0 0 0
0 0 0 0 0 0 0 0 0 0 0 0 0 0 0 1 1 2 3 3 3 2 1 0 0 0 0 0 0 0 0 0 0 0 0 0 0 0 0 0 0 0 0 0 0 0 0 0 0
0 0 0 0 0 0 0 0 0 0 0 0 0 0 0 0 0 1 1 2 3 3 2 1 0 0 0 0 0 0 0 0 0 0 0 0 0 0 0 0 0 0 0 0 0 0 0 0 0
0 0 0 0 0 0 0 0 0 0 0 0 0 0 0 0 0 0 1 2 3 3 3 2 1 1 0 0 0 0 0 0 0 0 0 0 0 0 0 0 0 0 0 0 0 0 0 0 0
0 0 0 0 0 0 1 0 0 1 1 1 0 0 0 0 0 0 1 2 3 3 3 3 3 2 1 1 0 0 0 0 0 0 0 0 0 0 0 0 0 0 0 0 0 0 0 0 0
0 0 0 0 0 0 0 0 1 2 2 1 0 0 0 0 0 0 1 3 3 3 3 3 4 4 4 2 1 0 0 0 0 0 0 0 0 0 0 0 0 0 0 0 0 0 0 0 0
0 0 0 0 0 0 0 0 1 2 3 2 1 0 0 0 0 0 1 2 3 3 3 3 4 5 5 3 1 0 0 0 0 0 0 0 0 0 0 0 0 0 0 0 0 0 0 0 0
0 0 0 0 0 0 0 0 1 2 3 3 2 1 0 0 0 0 1 2 3 3 3 3 4 5 6 4 1 0 1 0 0 0 0 0 0 0 0 0 0 0 0 0 0 0 0 0 0
0 0 0 0 0 0 0 0 1 2 3 3 3 1 0 0 0 1 1 1 2 3 3 3 3 4 5 4 1 0 0 0 0 0 0 0 0 0 0 0 0 0 0 0 0 0 0 0 0
0 0 0 0 0 0 0 0 1 2 3 3 3 2 2 2 2 3 2 1 1 1 2 3 3 3 4 3 1 0 0 0 0 0 0 0 0 0 0 0 0 0 0 0 0 0 0 0 0
0 0 0 0 0 0 0 0 0 1 2 3 3 3 3 5 5 5 4 3 2 1 1 2 2 2 3 3 1 1 1 1 1 0 0 0 0 0 0 0 0 0 0 0 0 0 0 0 0
0 0 0 0 0 0 0 0 0 0 1 1 2 3 4 5 6 6 5 4 3 2 1 1 1 1 2 3 2 2 2 2 2 1 0 0 0 0 0 0 0 0 0 0 0 0 0 0 0
0 0 0 0 0 0 0 0 0 0 0 0 1 3 3 4 5 6 5 4 3 3 2 1 1 1 2 3 3 2 3 3 3 2 1 0 0 0 0 0 0 0 0 0 0 0 0 0 0
0 0 0 0 0 0 0 0 0 0 0 0 1 2 3 3 4 4 5 4 3 3 3 3 2 1 1 3 3 3 3 3 3 3 1 0 0 0 0 0 0 0 0 0 0 0 0 0 0
0 0 0 0 0 0 0 0 0 0 0 0 0 2 3 3 3 4 4 3 3 3 3 3 3 1 1 2 3 3 3 3 4 3 2 1 0 0 0 0 0 0 0 0 0 0 0 0 0
0 0 0 0 0 0 0 0 0 0 0 0 1 2 3 4 4 4 4 3 3 3 3 3 3 2 1 2 2 3 3 4 5 4 3 2 1 1 0 0 0 0 0 0 0 0 0 0 0
0 0 0 0 0 0 0 0 0 0 0 0 1 3 4 4 4 4 4 3 3 3 3 3 3 3 3 2 2 2 3 4 5 5 4 4 3 2 1 0 0 0 0 0 1 1 0 0 0
0 0 0 0 0 0 0 0 0 0 0 0 2 3 3 4 4 4 4 3 3 2 3 3 3 3 3 2 2 2 3 5 6 6 5 4 4 2 1 0 0 0 0 1 2 2 1 0 0
0 0 0 0 0 0 0 0 0 0 0 0 1 2 3 3 2 2 3 2 1 1 1 3 3 3 2 1 1 2 3 4 5 5 4 3 3 2 1 0 0 0 0 1 3 2 1 0 0
0 0 0 0 0 0 0 0 0 0 0 0 0 1 3 3 1 1 1 1 0 0 1 2 3 2 1 0 0 1 2 3 3 2 1 2 3 2 1 0 0 0 1 2 3 2 1 0 0
Wind_Speed
3 1 2 3 6 6 3 1 2 3 3 4 7 9 7 5 4 3 2 5 7 6 5 6 7 8 8 7 8 8 8 8 9 9 9 9 9 9 9 9 9 9 9 9 9 9 9 9 9
1 0 3 5 6 4 1 0 4 3 5 6 7 7 7 5 3 4 2 6 7 7 5 6 8 8 7 7 8 8 8 8 8 8 9 9 8 8 8 8 8 8 9 9 9 9 9 9 9
2 0 4 5 4 3 2 1 4 4 4 5 5 5 5 4 3 4 5 8 7 6 5 6 9 8 8 7 7 7 7 7 7 7 8 8 8 8 7 7 8 8 8 8 8 8 8 8 8
2 4 5 5 4 1 3 3 4 5 4 5 6 5 3 2 4 5 8 9 8 5 4 6 9 8 8 7 7 7 7 6 6 6 7 7 7 7 7 7 7 8 8 8 8 8 8 8 8
4 5 6 4 2 1 2 4 5 6 4 5 7 6 3 1 5 8 9 9 8 5 4 5 8 8 8 7 7 6 6 6 6 6 6 6 6 6 6 7 7 7 7 7 8 8 8 8 8
4 5 4 2 2 1 1 4 6 7 6 6 7 6 2 1 6 6 7 7 7 6 5 4 8 8 8 7 6 6 6 5 5 5 5 5 6 6 6 6 7 7 7 7 7 7 8 8 8
4 4 2 2 2 2 2 4 6 6 4 3 6 5 2 1 4 6 6 6 5 5 4 3 3 5 6 7 6 6 5 4 4 4 4 4 5 5 6 6 6 6 6 6 6 6 7 7 7
4 4 2 1 3 1 1 3 4 6 3 3 5 7 4 4 4 6 6 5 5 4 3 3 2 2 2 2 5 5 5 4 4 4 4 4 4 4 5 5 5 6 5 5 5 6 6 6 6
4 5 1 2 4 2 2 4 2 4 5 4 3 5 6 8 7 7 5 4 3 4 3 3 3 2 2 2 3 3 4 4 4 3 4 4 2 2 2 3 5 5 5 4 5 5 5 5 6
5 3 3 3 5 4 2 4 3 4 5 4 4 5 6 8 8 7 6 4 3 3 2 2 3 3 2 2 2 1 1 1 1 1 2 2 2 1 2 2 4 4 4 4 4 4 5 4 3
3 4 2 2 4 5 3 2 3 6 2 4 7 7 7 6 6 7 5 5 4 4 3 3 3 3 3 2 2 1 1 1 1 1 2 2 2 2 2 1 2 2 3 3 3 4 3 3 3
2 1 2 2 3 4 3 2 2 4 5 7 10 10 8 6 5 5 6 5 4 4 3 4 4 3 3 3 2 2 1 1 1 1 2 2 2 2 1 1 1 1 1 2 2 2 3 4 3
2 1 1 2 3 3 4 3 3 2 4 6 9 9 7 6 5 4 5 5 4 4 4 4 4 4 3 3 2 2 2 1 1 1 1 2 2 2 1 1 1 1 2 2 2 3 4 4 4
2 1 0 1 2 2 5 1 2 3 5 7 8 7 6 6 6 5 4 4 4 4 4 4 4 4 4 3 2 2 1 1 2 2 2 3 2 2 2 2 2 2 2 2 2 3 3 3 3
1 2 2 2 2 3 5 2 2 5 6 7 7 7 6 5 6 7 6 6 5 4 3 4 5 4 4 3 3 2 1 2 2 2 2 3 3 3 3 2 2 2 2 3 3 3 3 4 4
3 2 1 5 2 2 5 3 5 3 6 6 6 5 5 5 5 6 6 6 5 5 4 4 5 5 4 3 3 2 2 2 2 2 2 3 3 3 3 2 2 2 2 3 3 3 3 3 3
3 1 3 4 2 1 3 4 5 3 6 6 5 5 5 4 4 5 5 6 6 5 5 4 4 5 4 4 3 3 3 2 2 2 2 2 3 3 3 2 2 2 3 3 3 3 2 3 3
4 3 3 3 3 1 1 3 4 3 5 6 5 5 5 5 5 5 5 5 6 5 5 5 4 4 4 3 3 3 3 2 2 2 2 3 3 3 3 2 2 3 3 3 3 3 3 2 2
4 2 2 4 3 1 2 3 4 3 3 4 4 5 5 5 4 4 4 5 5 4 4 4 4 3 3 3 2 2 1 1 1 1 2 3 3 3 3 3 2 3 3 3 3 3 3 2 2
2 1 1 3 2 1 2 3 2 2 3 5 6 5 6 5 3 3 4 4 4 5 4 4 4 4 3 3 2 2 2 1 1 1 1 2 3 3 3 3 2 2 3 3 2 2 2 1 1
1 2 2 2 3 3 2 4 3 2 1 1 2 3 5 6 6 5 4 4 4 4 4 4 4 4 4 3 2 2 2 2 2 1 1 1 2 2 2 3 2 2 2 2 2 2 3 1 1
2 3 2 1 1 2 2 2 5 2 2 1 1 2 4 4 5 5 5 4 4 4 4 4 4 4 4 4 4 4 2 2 2 1 1 1 2 2 2 2 2 2 2 2 2 2 2 2 1
4 3 1 1 1 1 1 2 5 1 1 1 1 2 3 3 5 5 5 5 5 4 4 4 4 3 3 3 4 4 2 2 1 1 2 1 1 2 2 2 2 2 2 2 2 2 2 2 2
1 4 6 5 4 1 3 4 4 2 3 2 1 2 2 3 4 4 3 3 2 3 3 4 4 3 2 3 3 4 4 3 2 1 2 1 1 1 2 2 2 2 2 2 2 2 2 2 2
5 6 4 5 4 4 2 2 4 3 2 3 4 3 2 3 4 3 3 2 2 2 2 3 4 3 2 3 2 3 4 4 4 3 3 2 1 1 2 2 2 2 2 2 2 2 2 2 2
1 7 6 3 3 4 3 1 3 2 1 3 4 4 3 3 4 3 3 2 2 1 2 2 3 2 2 2 2 2 2 2 2 3 3 3 3 3 3 3 3 3 2 3 2 1 2 2 2
2 2 6 5 1 1 3 2 2 2 3 3 3 4 3 3 4 3 3 2 2 2 1 3 3 2 2 2 2 2 2 2 2 2 2 2 2 2 2 3 3 3 3 3 3 2 2 2 1
3 4 5 4 2 2 3 3 4 4 2 0 1 3 3 3 3 3 2 2 2 2 1 2 2 2 2 1 2 2 2 2 2 2 2 2 2 2 2 2 2 2 2 2 2 2 1 2 1
1 2 3 3 4 4 3 5 4 6 5 3 2 3 3 3 3 3 2 2 2 1 2 1 1 1 1 1 1 1 1 1 1 2 2 2 2 2 2 3 2 2 2 2 2 2 2 2 1
3 4 5 3 3 3 3 7 3 4 3 3 2 2 2 3 2 2 2 2 1 1 1 1 0 1 1 1 1 1 0 1 1 1 1 1 2 2 3 3 2 2 2 2 2 2 2 2 2
Wind_Direction
286 305 101 65 55 54 58 44 108 70 58 58 74 83 83 70 91 134 221 148 144 147 144 125 114 109 102 97 96 95 89 87 86 86 85 82 82 83 80 79 79 79 78 77 75 72 70 72 69
321 343 72 59 75 71 30 72 89 95 128 112 81 83 80 72 94 121 128 147 144 144 145 131 126 118 112 106 101 99 93 90 88 88 87 85 82 82 79 78 79 79 79 77 76 75 73 70 68
297 81 75 66 83 129 150 170 121 90 92 90 83 65 82 111 122 142 157 148 138 137 140 138 133 126 119 112 107 103 98 94 92 90 88 87 84 83 83 81 83 83 80 78 76 76 73 70 71
52 43 54 72 88 154 153 166 124 97 69 68 95 72 70 115 145 145 144 141 136 140 146 147 140 135 129 123 117 112 107 102 99 94 89 88 87 85 85 86 86 86 85 81 78 75 73 73 73
67 67 57 61 79 95 130 130 111 99 82 83 94 95 66 53 115 127 138 140 141 146 153 152 146 141 135 130 125 119 113 109 104 98 93 90 89 89 89 88 87 88 87 85 81 76 74 74 75
54 65 75 76 90 66 79 115 104 96 106 107 102 110 125 118 118 133 135 136 142 148 154 155 150 145 142 136 131 125 119 115 109 101 95 93 94 92 90 91 91 89 87 84 81 77 76 77 76
101 89 107 129 96 75 108 108 105 111 110 116 124 111 140 151 149 134 126 124 134 139 142 148 151 152 153 149 143 137 132 124 116 104 100 99 103 101 98 96 95 93 88 86 79 75 78 76 75
126 100 73 100 113 112 137 103 116 117 118 121 114 130 167 185 147 119 114 115 120 121 133 149 151 154 162 157 149 147 141 129 116 101 94 102 105 108 105 101 101 98 93 85 73 70 78 74 71
89 81 126 183 151 163 110 96 81 87 94 76 88 135 157 144 128 111 103 96 109 115 129 135 139 149 162 165 139 132 131 121 106 90 85 85 73 81 96 101 105 104 94 78 68 68 72 65 65
90 120 205 194 163 151 131 122 129 85 79 77 76 91 121 130 132 130 131 134 134 140 146 139 145 141 141 133 115 101 112 100 82 78 79 79 82 86 94 82 92 88 74 58 58 61 58 53 49
125 164 190 157 149 135 133 114 122 121 115 160 150 144 141 135 143 144 150 156 161 160 143 142 149 135 127 112 115 102 88 89 73 77 88 90 82 76 70 59 46 42 52 39 40 46 43 50 60
106 191 158 157 142 140 148 128 93 138 183 179 158 151 144 143 153 156 156 162 154 134 131 137 139 126 128 118 118 116 103 106 104 100 104 100 88 86 85 77 60 54 50 48 43 54 53 58 71
101 180 130 140 120 136 119 122 130 156 165 145 138 139 146 150 154 156 151 149 138 133 133 135 128 121 121 110 117 111 111 114 112 90 102 111 107 109 109 94 78 63 59 64 69 74 72 66 70
185 172 158 180 151 146 126 128 105 198 156 137 136 147 157 157 149 135 133 135 142 144 147 136 125 128 121 114 111 103 100 108 98 84 87 107 111 113 106 90 77 66 68 71 85 91 87 75 73
108 65 342 276 173 175 127 33 225 203 155 144 153 163 163 157 144 149 159 158 151 148 142 137 139 128 120 119 116 104 103 91 86 81 85 97 101 105 104 93 80 73 76 76 74 72 74 77 74
36 54 306 281 200 193 127 212 249 205 149 159 167 165 164 162 157 156 158 152 148 143 141 142 132 124 122 120 114 107 100 96 85 78 82 91 93 95 101 97 85 80 79 79 79 76 76 70 71
13 284 256 284 255 172 139 215 244 206 159 173 178 173 163 157 155 156 156 151 149 149 146 134 129 130 129 122 114 106 94 86 85 80 81 85 87 92 99 98 94 85 76 72 86 77 90 84 75
238 246 248 247 252 147 181 236 243 211 172 182 185 178 165 163 180 167 150 148 146 142 138 132 128 124 120 112 95 81 77 71 71 76 80 86 85 90 97 95 87 88 84 72 74 80 69 81 87
207 212 251 256 249 134 214 233 238 215 179 186 189 183 173 177 185 152 138 138 137 134 132 133 130 128 119 114 112 101 98 79 67 76 88 94 96 99 98 100 89 91 97 102 102 92 78 62 73
215 220 307 317 307 144 231 266 260 203 187 190 187 187 177 168 145 129 132 137 139 146 146 146 147 146 142 146 151 146 142 127 126 102 89 98 100 108 115 114 113 108 102 98 99 102 95 71 72
230 190 217 243 347 15 65 343 324 326 38 77 135 157 161 165 166 157 148 147 143 145 155 156 156 151 149 140 116 93 69 57 50 66 86 98 119 118 117 126 129 130 128 138 138 130 126 131 28
236 223 194 185 62 284 133 277 289 275 346 15 95 132 150 158 161 161 155 152 164 168 157 146 146 147 150 139 135 137 141 160 199 180 162 162 144 133 132 141 140 141 140 143 154 134 137 138 153
220 225 197 200 157 326 323 156 289 350 314 276 174 158 151 153 152 153 165 169 167 158 152 144 132 134 141 140 146 147 155 180 180 144 134 136 151 160 160 163 158 155 152 156 146 126 131 143 157
118 41 26 41 67 320 247 162 266 255 227 220 168 142 150 133 136 147 148 132 131 133 137 136 134 136 145 143 155 162 165 165 151 158 163 169 173 190 183 173 174 173 166 163 161 148 149 157 148
71 77 29 1 10 267 286 135 244 262 215 175 166 160 143 134 127 119 109 114 130 134 148 149 145 150 166 160 170 174 177 175 177 181 181 176 177 207 212 180 177 176 179 173 164 153 161 161 156
155 133 150 193 231 284 346 208 261 300 64 115 132 129 113 123 129 134 144 144 142 146 143 147 158 168 177 170 180 179 174 177 190 188 183 188 194 203 205 191 185 184 175 173 166 161 179 162 170
132 164 170 147 221 270 286 283 310 30 48 71 99 102 121 146 148 144 140 124 114 113 153 169 166 161 170 172 171 172 180 185 193 187 182 194 203 203 194 192 186 189 184 174 164 166 190 174 185
148 149 91 113 169 260 278 251 231 230 232 218 137 157 165 148 140 142 143 138 134 131 129 140 156 169 176 172 178 173 181 182 178 169 176 193 201 201 177 179 179 182 179 166 160 171 184 171 197
82 92 106 126 158 165 242 264 222 197 198 197 205 180 163 152 157 160 160 160 162 115 85 81 128 148 151 175 188 161 180 191 174 178 198 208 204 188 178 177 172 169 159 164 166 184 187 182 201
172 174 144 155 239 184 188 263 283 175 166 150 157 157 153 156 154 155 165 146 138 129 117 77 106 172 192 185 152 168 164 114 130 195 229 214 197 193 186 167 161 169 168 175 174 189 193 186 195